Location: Ingoldesthorpe
(52.8667°N, 0.5167°E)
Time: 11:50:04
(UTC+00:00)

Cosmos 1766 Rocket - Pass Details

Date: 19 May 2025
Orbit: 599 x 626 km, 82.5° (Epoch: 11 June)

Event Time Altitude Azimuth Distance (km) Brightness Sun altitude
Rises 21:52:46 0° 351° (N) 2,911 8.5 -12.5°
Reaches altitude 10° 21:55:03 10° 354° (N) 1,996 7.3 -12.7°
Maximum altitude 21:59:26 62° 76° (ENE) 697 3.7 -13.0°
Enters shadow 22:02:15 21° 152° (SSE) 1,391 4.7 -13.2°
